Overview Statistics Trail Chart Weather Telemetry Raw packets
 

This is the latest recevied weather packets stored in our database for station/object LU4EGV-13. If no packets are shown the sender has not sent any weather packets the latest 10 day(s).

<< 41 42 43 44 45 46 47 >>
Time Temp. Humidity Pressure Rain* Wind** Luminosity Snow
1788041631 15.56° C 50% 1013.4 hPa 0 mm - - -
1788041025 15.56° C 49% 1013.3 hPa 0 mm - - -
1788040422 16.11° C 46% 1013.3 hPa 0 mm - - -
1788039815 16.11° C 45% 1013.1 hPa 0 mm - - -
1788039210 16.67° C 45% 1012.9 hPa 0 mm - - -
1788038604 17.22° C 42% 1012.9 hPa 0 mm - - -
1788037999 18.33° C 40% 1012.8 hPa 0 mm - - -
1788037391 19.44° C 37% 1012.8 hPa 0 mm - - -
1788036798 20° C 35% 1012.7 hPa 0 mm - - -
1788036178 20° C 36% 1012.6 hPa 0 mm - - -
1788035572 20.56° C 34% 1012.6 hPa 0 mm - - -
1788034962 20.56° C 34% 1012.5 hPa 0 mm - - -
1788034358 21.11° C 34% 1012.6 hPa 0 mm - - -
1788033750 20.56° C 34% 1012.4 hPa 0 mm - - -
1788033144 21.11° C 33% 1012.4 hPa 0 mm - - -
1788032543 21.11° C 34% 1012.4 hPa 0 mm - - -
1788031932 21.11° C 34% 1012.2 hPa 0 mm - - -
1788031326 21.11° C 34% 1012 hPa 0 mm - - -
1788030720 21.67° C 35% 1012.1 hPa 0 mm - - -
1788030114 21.67° C 35% 1012.2 hPa 0 mm - - -
1788029508 21.67° C 36% 1012.2 hPa 0 mm - - -
1788028902 21.67° C 36% 1012 hPa 0 mm - - -
1788028295 21.67° C 36% 1011.9 hPa 0 mm - - -
1788027691 21.67° C 36% 1011.8 hPa 0 mm - - -
1788027084 21.67° C 37% 1011.7 hPa 0 mm - - -

* Rain latest hour (hover to see other rain measurements)
** Current wind speed in m/s (hover to see current wind gust speed)